Location: Berlijn
(52.5200°N, 13.4050°E)
Time: 05:58:43
(UTC+02:00)

Envisat - Pass Details

Date: 25 September 2021
Orbit: 764 x 766 km, 98.2° (Epoch: 27 October)

Event Time Altitude Azimuth Distance (km) Brightness Sun altitude
Rises 05:54:38 0° 18° (NNE) 3,246 6.7 -10.3°
Reaches altitude 10° 05:57:03 10° 25° (NNE) 2,315 6.0 -10.0°
Maximum altitude 06:01:56 45° 98° (E) 1,039 4.3 -9.2°
Drops below altitude 10° 06:06:47 10° 171° (S) 2,297 5.5 -8.5°
Sets 06:09:11 0° 178° (S) 3,218 6.2 -8.1°
